Regional Weather Roundup
Issued by NWS

Home | Current Version | Previous Version | Graphics & Text | Print | Product List | Glossary On
Versions: 1 2 3 4 5 6 7 8 9 10 11 12 13 14 15 16 17 18 19 20 21 22 23 24 25 26 27 28 29 30 31 32 33 34 35 36 37 38 39 40 41 42 43 44 45 46 47 48 49 50
000
ASUS45 KPSR 231010
RWRAZ

ARIZONA REGIONAL HOURLY WEATHER ROUNDUP
NATIONAL WEATHER SERVICE PHOENIX AZ
300 AM MST SAT AUG 23 2014

NOTE: FAIR INDICATES FEW OR NO CLOUDS BELOW 12,000 FEET WITH NO
SIGNIFICANT WEATHER AND/OR OBSTRUCTIONS TO VISIBILITY.

AZZ001>003-036-231100-
NORTHWEST ARIZONA

CITY           SKY/WX    TMP DP  RH WIND       PRES   REMARKS
BULLHEAD CITY  FAIR      82  57  42 S6        29.84S
KINGMAN        FAIR      65  53  65 SE10      30.00S
$$

AZZ004>008-015-016-018-231100-
NORTH CENTRAL ARIZONA

CITY           SKY/WX    TMP DP  RH WIND       PRES   REMARKS
GRAND CANYON     N/A    N/A N/A N/A MISG        N/A
WILLIAMS       FAIR      50  46  87 CALM      30.26S
PRESCOTT       FAIR      58  51  78 CALM      30.12S
FLAGSTAFF      FAIR      50  47  89 W3        30.23R
PAYSON         FAIR      57  52  82 CALM      30.16S
PAGE           FAIR      72  48  42 SW5       30.00R
$$

AZZ009>014-017-231100-
NORTHEAST ARIZONA

CITY           SKY/WX    TMP DP  RH WIND       PRES   REMARKS
WINSLOW        FAIR      59  53  80 SE5       30.12R
SAINT JOHNS    FAIR      55  51  86 SE3       30.16F
SHOW LOW       FAIR      55  46  71 S10       30.21F
$$

AZZ023-231100-
GREATER PHOENIX AREA

CITY           SKY/WX    TMP DP  RH WIND       PRES   REMARKS
PHOENIX        FAIR      80  62  54 E6        29.88S
BUCKEYE          N/A     73  64  73 NE3       29.89S
LUKE AFB       NOT AVBL
DEER VALLEY    FAIR      75  62  64 E5        29.90S
SCOTTSDALE     FAIR      76  64  66 CALM      29.92S
MESA-GATEWAY   FAIR      73  59  60 CALM      29.93S
$$

AZZ027-028-231100-
SOUTHWEST MARICOPA COUNTY AND PINAL COUNTY

CITY           SKY/WX    TMP DP  RH WIND       PRES   REMARKS
CASA GRANDE    FAIR      73  52  46 CALM      29.92F
$$

AZZ503-504-507>509-231100-
SOUTHEAST ARIZONA

CITY           SKY/WX    TMP DP  RH WIND       PRES   REMARKS
TUCSON         FAIR      74  63  68 SE3       30.02S
DAVIS-MONTHAN  MOCLDY    73  64  72 S5        30.01S
NOGALES        FAIR      64  60  87 CALM      30.09S
SIERRA VISTA   FAIR      62  60  93 CALM      30.13S
DOUGLAS        FAIR      62  59  90 E5        30.10F
SAFFORD        MOCLDY    72  58  61 CALM      30.02R
$$

AZZ020-021-025-026-031-231100-
SOUTHWEST ARIZONA

CITY           SKY/WX    TMP DP  RH WIND       PRES   REMARKS
YUMA           FAIR      83  65  54 SE3       29.84S
$$

CAZ031-033-041-043-047-048-061-231100-
SOUTHERN CALIFORNIA

CITY           SKY/WX    TMP DP  RH WIND       PRES   REMARKS
DOWNTOWN L.A.  CLOUDY    68  61  78 CALM      29.94S
L.A. AIRPORT   CLOUDY    68  61  78 CALM      29.94F
SAN DIEGO      FAIR      68  62  81 CALM      29.95S
BURBANK        CLOUDY    66  61  84 SE3       29.95S
ONTARIO        FAIR      65  61  87 SW3       29.95F
RIVERSIDE      FAIR      66  61  84 CALM      29.96S
PALM SPRINGS   FAIR      81  41  24 S3        29.85R
EL CENTRO NAS  FAIR      80  53  39 W12       29.82R
IMPERIAL       FAIR      74  56  53 W7        29.81S
BLYTHE         FAIR      77  55  46 S9        29.82S
NEEDLES        FAIR      83  54  36 CALM      29.83F
$$

NVZ020-UTZ003-231100-
SOUTHERN NEVADA-UTAH

CITY           SKY/WX    TMP DP  RH WIND       PRES   REMARKS
LAS VEGAS      FAIR      82  48  30 S17       29.80S
SALT LAKE CITY LGT RAIN  57  52  83 SE15      29.97F
$$

NMZ009-TXZ055-231100-
NEW MEXICO-WEST TEXAS

CITY           SKY/WX    TMP DP  RH WIND       PRES   REMARKS
ALBUQUERQUE    PTCLDY    59  54  83 CALM      30.16F
EL PASO        MOCLDY    69  60  73 S8        30.07R
$$


........................KEY........................
SKY/WX - SKY CONDITION/WEATHER
TMP    - TEMPERATURE IN FAHRENHEIT
DP     - DEW POINT IN FAHRENHEIT
RH     - RELATIVE HUMIDITY IN PERCENT
WIND   - DIRECTION AND SPEED IN MILES PER HOUR (MPH)
VRB    - VARIABLE WIND DIRECTION
PRES   - MEAN SEA LEVEL PRESSURE IN INCHES OF MERCURY
         F - FALLING PRESSURE   R - RISING PRESSURE
         S - STEADY PRESSURE
VSB    - VISIBILITY IN MILES
HX     - HEAT INDEX IN FAHRENHEIT
WCI    - WIND CHILL INDEX IN FAHRENHEIT
TC     - TEMPERATURE IN CELSIUS WHICH IS ALSO KNOWN AS
         TEMPERATURE IN CENTIGRADE
AFB    - AIR FORCE BASE
         LUKE AFB IS LUKE AIR FORCE BASE
         DAVIS-MONTHAN IS DAVIS-MONTHAN AIR FORCE BASE
NAS    - NAVAL AIR STATION
         EL CENTRO NAS IS EL CENTRO NAVAL AIR STATION
N/A    - NOT AVAILABLE


USA.gov is the U.S. government's official web portal to all federal, state and local government web resources and services.